Location: Chandrammap?lem
(16.9200°N, 81.0051°E)
Time: 03:25:48
(UTC+00:00)

Cosmos 292 Rocket - Pass Details

Date: 29 May 2024
Orbit: 667 x 689 km, 74.0° (Epoch: 17 June)

Event Time Altitude Azimuth Distance (km) Brightness Sun altitude
Exits shadow 22:43:30 31° 263° (W) 1,173 4.5 -17.6°
Maximum altitude 22:44:23 33° 286° (WNW) 1,114 4.5 -17.4°
Drops below altitude 10° 22:48:38 10° 350° (N) 2,096 6.5 -16.5°
Sets 22:51:07 0° 0° (N) 3,014 7.5 -16.0°
